User: anonymous   Login
Location: Unspecified
(0.0000°N, 0.0000°E)
Time: 17:00:48
(UTC+00:00)
Language:

Transit VE-3 - Orbit

View from above orbital plane
View from above orbital plane
View from above satellite
View from above satellite

Ground track
Ground track

The orbit data is extracted from the following two-line orbital elements,

1 00705U 63049C   17265.56197522  .00000039  00000-0  47144-4 0  9998
2 00705  89.9085  99.8245 0035847  71.6090 341.4569 13.47310153643137
Epoch (UTC): 22 September 2017 13:29:14
Eccentricity: 0.0035847
inclination: 89.9085°
perigee height: 1055 km
apogee height: 1109 km
right ascension of ascending node: 99.8245°
argument of perigee: 71.6090°
revolutions per day: 13.47310153
mean anomaly at epoch: 341.4569°
orbit number at epoch: 64313

The dashed part of the orbit path shows where the satellite is in the earth's shadow,  

DLR